Flag Weather past 2 weeks in Saint-Petersburg, Russia

Now
32 °F

Ice fog.


Feels Like: 32 °F
Forecast: 26 / 33 °F
Wind: 1 mph from Southeast

Location: St. Petersburg

Current Time: Nov 23, 2014 at 4:23:50 AM

Latest Report: Nov 23, 2014 at 3:30 AM


Visibility: 2 mi

Pressure: 30.39 "Hg

Humidity: 93%

Dew point: 30 °F

Location of Saint-PetersburgLocation

Historic Weather in Saint-Petersburg — Graph

°F

Saint-Petersburg temperature yesterday

Maximum temperature yesterday: 32 °F (at 1:00 PM)
Minimum temperature yesterday: 27 °F (at 12:00 AM)
Average temperature yesterday: 30 °F

Past Weeks' High & Low Weather Summary

 TemperatureHumidityPressure
High46 °F (Nov 11, 2:30 PM)100% (Nov 8, 3:00 AM)30.66 "Hg (Nov 8, 3:00 AM)
Low14 °F (Nov 19, 5:00 AM)70% (Nov 10, 4:30 PM)29.59 "Hg (Nov 8, 3:00 AM)
Average31 °F93%30.35 "Hg
* Reported Nov 8 3:00 AM — Nov 23 3:00 AM, Saint-Petersburg, Weather by CustomWeather, © 2014

Note: Actual official high and low records may vary slightly from our data, if they occured in-between our weather recording intervals... More about our weather records

Advertising

Saint-Petersburg weather history for previous 24 hours

 ConditionsComfort  
Time TempWeatherWind HumidityBarometerVisibility
3:00 AM
Nov 23
30 °FIce fog.No wind100%30.39 "Hg2 mi
2:30 AM30 °FIce fog.No wind100%30.39 "Hg3 mi
2:00 AM32 °FIce fog.No wind93%30.39 "Hg3 mi
1:30 AM32 °FMostly cloudy.1 mph100%30.39 "Hg4 mi
1:00 AM32 °FMostly cloudy.1 mph93%30.39 "Hg4 mi
12:30 AM32 °FIce fog.No wind93%30.36 "Hg3 mi
12:00 AM32 °FMostly cloudy.No wind93%30.36 "Hg4 mi
11:30 PM
Nov 22
32 °FIce fog.3 mph93%30.36 "Hg3 mi
11:00 PM32 °FMostly cloudy.1 mph93%30.36 "Hg5 mi
10:30 PM32 °FIce fog.No wind93%30.36 "Hg3 mi
10:00 PM32 °FMostly cloudy.No wind93%30.36 "Hg5 mi
9:30 PM32 °FMostly cloudy.No wind93%30.33 "Hg4 mi
9:00 PM32 °FMostly cloudy.No wind93%30.33 "Hg5 mi
8:30 PM30 °FIce fog.No wind100%30.33 "Hg3 mi
8:00 PM32 °FIce fog.1 mph93%30.33 "Hg3 mi
7:30 PM32 °FIce fog.3 mph93%30.33 "Hg3 mi
7:00 PM32 °FIce fog.1 mph93%30.33 "Hg3 mi
6:30 PM32 °FIce fog.1 mph93%30.33 "Hg3 mi
6:00 PM30 °FIce fog.1 mph100%30.33 "Hg3 mi
5:30 PM32 °FIce fog.3 mph93%30.33 "Hg3 mi
5:00 PM32 °FMostly cloudy.3 mph93%30.30 "Hg4 mi
4:30 PM32 °FMostly cloudy.3 mph93%30.30 "Hg4 mi
4:00 PM32 °FLight snow. Mostly cloudy.3 mph93%30.30 "Hg4 mi
3:30 PM32 °FLight snow. Mostly cloudy.3 mph93%30.30 "Hg4 mi
3:00 PM32 °FLight snow. Mostly cloudy.3 mph93%30.30 "Hg3 mi
2:30 PM32 °FLight snow. Cloudy.1 mph93%30.30 "Hg2 mi
2:00 PM32 °FLight snow. Cloudy.1 mph93%30.30 "Hg3 mi
1:30 PM32 °FLight snow. Cloudy.1 mph93%30.30 "Hg3 mi
1:00 PM32 °FLight snow. Cloudy.1 mph93%30.30 "Hg4 mi
12:30 PM30 °FMostly cloudy.3 mph100%30.30 "HgN/A
12:00 PM30 °FMostly cloudy.3 mph93%30.27 "HgN/A
11:30 AM30 °FMostly cloudy.1 mph93%30.27 "HgN/A
11:00 AM28 °FMostly cloudy.3 mph100%30.27 "HgN/A
10:30 AM28 °FMostly cloudy.1 mph100%30.27 "HgN/A
10:00 AM28 °FMostly cloudy.3 mph93%30.27 "HgN/A
9:30 AM28 °FLight snow. Mostly cloudy.3 mph93%30.27 "Hg4 mi
9:00 AM28 °FLight snow. Mostly cloudy.3 mph93%30.27 "Hg6 mi
8:30 AM28 °FLight snow. Ice fog.3 mph93%30.27 "Hg3 mi
8:00 AM28 °FLight snow. Ice fog.1 mph93%30.27 "Hg2 mi
7:30 AM28 °FLight snow. Ice fog.1 mph93%30.27 "Hg2 mi
7:00 AM27 °FLight snow. Ice fog.3 mph100%30.27 "Hg2 mi
6:30 AM27 °FLight snow. Ice fog.1 mph100%30.27 "Hg2 mi
5:30 AM27 °FLight snow. Ice fog.1 mph100%30.27 "Hg2 mi
5:00 AM27 °FLight snow. Ice fog.1 mph100%30.27 "Hg2 mi
4:30 AM27 °FIce fog.1 mph100%30.27 "Hg2 mi
4:00 AM27 °FOvercast.1 mph100%30.27 "Hg5 mi
Weather by CustomWeather, © 2014

See weather overviewHow to use our weather pages